Year,Month,Day,Hour,Minute,Value (Times are PST for insolation in W/m^2)
2018,05,09,00,00,0.00
2018,05,09,00,01,0.00
2018,05,09,00,02,0.00
2018,05,09,00,03,0.00
2018,05,09,00,04,0.00
2018,05,09,00,05,0.00
2018,05,09,00,06,0.00
2018,05,09,00,07,0.00
2018,05,09,00,08,0.00
2018,05,09,00,09,0.00
2018,05,09,00,10,0.00
2018,05,09,00,11,0.00
2018,05,09,00,12,0.00
2018,05,09,00,13,0.00
2018,05,09,00,14,0.00
2018,05,09,00,15,0.00
2018,05,09,00,16,0.00
2018,05,09,00,17,0.00
2018,05,09,00,18,0.00
2018,05,09,00,19,0.00
2018,05,09,00,20,0.00
2018,05,09,00,21,0.00
2018,05,09,00,22,0.00
2018,05,09,00,23,0.00
2018,05,09,00,24,0.00
2018,05,09,00,25,0.00
2018,05,09,00,26,0.00
2018,05,09,00,27,0.00
2018,05,09,00,28,0.00
2018,05,09,00,29,0.00
2018,05,09,00,30,0.00
2018,05,09,00,31,0.00
2018,05,09,00,32,0.00
2018,05,09,00,33,0.00
2018,05,09,00,34,0.00
2018,05,09,00,35,0.00
2018,05,09,00,36,0.00
2018,05,09,00,37,0.00
2018,05,09,00,38,0.00
2018,05,09,00,39,0.00
2018,05,09,00,40,0.00
2018,05,09,00,41,0.00
2018,05,09,00,42,0.00
2018,05,09,00,43,0.00
2018,05,09,00,44,0.00
2018,05,09,00,45,0.00
2018,05,09,00,46,0.00
2018,05,09,00,47,0.00
2018,05,09,00,48,0.00
2018,05,09,00,49,0.00
2018,05,09,00,50,0.00
2018,05,09,00,51,0.00
2018,05,09,00,52,0.00
2018,05,09,00,53,0.00
2018,05,09,00,54,0.00
2018,05,09,00,55,0.00
2018,05,09,00,56,0.00
2018,05,09,00,57,0.00
2018,05,09,00,58,0.00
2018,05,09,00,59,0.00
2018,05,09,01,00,0.00
2018,05,09,01,01,0.00
2018,05,09,01,02,0.00
2018,05,09,01,03,0.00
2018,05,09,01,04,0.00
2018,05,09,01,05,0.00
2018,05,09,01,06,0.00
2018,05,09,01,07,0.00
2018,05,09,01,08,0.00
2018,05,09,01,09,0.00
2018,05,09,01,10,0.00
2018,05,09,01,11,0.00
2018,05,09,01,12,0.00
2018,05,09,01,13,0.00
2018,05,09,01,14,0.00
2018,05,09,01,15,0.00
2018,05,09,01,16,0.00
2018,05,09,01,17,0.00
2018,05,09,01,18,0.00
2018,05,09,01,19,0.00
2018,05,09,01,20,0.00
2018,05,09,01,21,0.00
2018,05,09,01,22,0.00
2018,05,09,01,23,0.00
2018,05,09,01,24,0.00
2018,05,09,01,25,0.00
2018,05,09,01,26,0.00
2018,05,09,01,27,0.00
2018,05,09,01,28,0.00
2018,05,09,01,29,0.00
2018,05,09,01,30,0.00
2018,05,09,01,31,0.00
2018,05,09,01,32,0.00
2018,05,09,01,33,0.00
2018,05,09,01,34,0.00
2018,05,09,01,35,0.00
2018,05,09,01,36,0.00
2018,05,09,01,37,0.00
2018,05,09,01,38,0.00
2018,05,09,01,39,0.00
2018,05,09,01,40,0.00
2018,05,09,01,41,0.00
2018,05,09,01,42,0.00
2018,05,09,01,43,0.00
2018,05,09,01,44,0.00
2018,05,09,01,45,0.00
2018,05,09,01,46,0.00
2018,05,09,01,47,0.00
2018,05,09,01,48,0.00
2018,05,09,01,49,0.00
2018,05,09,01,50,0.00
2018,05,09,01,51,0.00
2018,05,09,01,52,0.00
2018,05,09,01,53,0.00
2018,05,09,01,54,0.00
2018,05,09,01,55,0.00
2018,05,09,01,56,0.00
2018,05,09,01,57,0.00
2018,05,09,01,58,0.00
2018,05,09,01,59,0.00
2018,05,09,02,00,0.00
2018,05,09,02,01,0.00
2018,05,09,02,02,0.00
2018,05,09,02,03,0.00
2018,05,09,02,04,0.00
2018,05,09,02,05,0.00
2018,05,09,02,06,0.00
2018,05,09,02,07,0.00
2018,05,09,02,08,0.00
2018,05,09,02,09,0.00
2018,05,09,02,10,0.00
2018,05,09,02,11,0.00
2018,05,09,02,12,0.00
2018,05,09,02,13,0.00
2018,05,09,02,14,0.00
2018,05,09,02,15,0.00
2018,05,09,02,16,0.00
2018,05,09,02,17,0.00
2018,05,09,02,18,0.00
2018,05,09,02,19,0.00
2018,05,09,02,20,0.00
2018,05,09,02,21,0.00
2018,05,09,02,22,0.00
2018,05,09,02,23,0.00
2018,05,09,02,24,0.00
2018,05,09,02,25,0.00
2018,05,09,02,26,0.00
2018,05,09,02,27,0.00
2018,05,09,02,28,0.00
2018,05,09,02,29,0.00
2018,05,09,02,30,0.00
2018,05,09,02,31,0.00
2018,05,09,02,32,0.00
2018,05,09,02,33,0.00
2018,05,09,02,34,0.00
2018,05,09,02,35,0.00
2018,05,09,02,36,0.00
2018,05,09,02,37,0.00
2018,05,09,02,38,0.00
2018,05,09,02,39,0.00
2018,05,09,02,40,0.00
2018,05,09,02,41,0.00
2018,05,09,02,42,0.00
2018,05,09,02,43,0.00
2018,05,09,02,44,0.00
2018,05,09,02,45,0.00
2018,05,09,02,46,0.00
2018,05,09,02,47,0.00
2018,05,09,02,48,0.00
2018,05,09,02,49,0.00
2018,05,09,02,50,0.00
2018,05,09,02,51,0.00
2018,05,09,02,52,0.00
2018,05,09,02,53,0.00
2018,05,09,02,54,0.00
2018,05,09,02,55,0.00
2018,05,09,02,56,0.00
2018,05,09,02,57,0.00
2018,05,09,02,58,0.00
2018,05,09,02,59,0.00
2018,05,09,03,00,0.00
2018,05,09,03,01,0.00
2018,05,09,03,02,0.00
2018,05,09,03,03,0.00
2018,05,09,03,04,0.00
2018,05,09,03,05,0.00
2018,05,09,03,06,0.00
2018,05,09,03,07,0.00
2018,05,09,03,08,0.00
2018,05,09,03,09,0.00
2018,05,09,03,10,0.00
2018,05,09,03,11,0.00
2018,05,09,03,12,0.00
2018,05,09,03,13,0.00
2018,05,09,03,14,0.00
2018,05,09,03,15,0.00
2018,05,09,03,16,0.00
2018,05,09,03,17,0.00
2018,05,09,03,18,0.00
2018,05,09,03,19,0.00
2018,05,09,03,20,0.00
2018,05,09,03,21,0.00
2018,05,09,03,22,0.00
2018,05,09,03,23,0.00
2018,05,09,03,24,0.00
2018,05,09,03,25,0.00
2018,05,09,03,26,0.00
2018,05,09,03,27,0.00
2018,05,09,03,28,0.00
2018,05,09,03,29,0.00
2018,05,09,03,30,0.00
2018,05,09,03,31,0.00
2018,05,09,03,32,0.00
2018,05,09,03,33,0.00
2018,05,09,03,34,0.00
2018,05,09,03,35,0.00
2018,05,09,03,36,0.00
2018,05,09,03,37,0.00
2018,05,09,03,38,0.00
2018,05,09,03,39,0.00
2018,05,09,03,40,0.00
2018,05,09,03,41,0.00
2018,05,09,03,42,0.00
2018,05,09,03,43,0.00
2018,05,09,03,44,0.00
2018,05,09,03,45,0.00
2018,05,09,03,46,0.00
2018,05,09,03,47,0.00
2018,05,09,03,48,0.00
2018,05,09,03,49,0.00
2018,05,09,03,50,0.00
2018,05,09,03,51,0.00
2018,05,09,03,52,0.00
2018,05,09,03,53,0.00
2018,05,09,03,54,0.00
2018,05,09,03,55,0.00
2018,05,09,03,56,0.00
2018,05,09,03,57,0.00
2018,05,09,03,58,0.00
2018,05,09,03,59,0.00
2018,05,09,04,00,0.00
2018,05,09,04,01,0.00
2018,05,09,04,02,0.00
2018,05,09,04,03,0.00
2018,05,09,04,04,0.00
2018,05,09,04,05,0.00
2018,05,09,04,06,0.00
2018,05,09,04,07,0.00
2018,05,09,04,08,0.00
2018,05,09,04,09,0.00
2018,05,09,04,10,0.00
2018,05,09,04,11,0.00
2018,05,09,04,12,0.00
2018,05,09,04,13,0.00
2018,05,09,04,14,0.00
2018,05,09,04,15,0.00
2018,05,09,04,16,0.00
2018,05,09,04,17,0.00
2018,05,09,04,18,0.00
2018,05,09,04,19,0.00
2018,05,09,04,20,0.00
2018,05,09,04,21,0.00
2018,05,09,04,22,0.00
2018,05,09,04,23,0.00
2018,05,09,04,24,0.00
2018,05,09,04,25,0.00
2018,05,09,04,26,0.00
2018,05,09,04,27,0.00
2018,05,09,04,28,0.00
2018,05,09,04,29,0.00
2018,05,09,04,30,0.00
2018,05,09,04,31,0.00
2018,05,09,04,32,0.00
2018,05,09,04,33,0.00
2018,05,09,04,34,0.00
2018,05,09,04,35,0.00
2018,05,09,04,36,0.00
2018,05,09,04,37,0.00
2018,05,09,04,38,0.00
2018,05,09,04,39,0.00
2018,05,09,04,40,0.00
2018,05,09,04,41,0.00
2018,05,09,04,42,0.00
2018,05,09,04,43,0.00
2018,05,09,04,44,0.00
2018,05,09,04,45,0.00
2018,05,09,04,46,0.00
2018,05,09,04,47,0.00
2018,05,09,04,48,0.00
2018,05,09,04,49,0.00
2018,05,09,04,50,0.00
2018,05,09,04,51,0.00
2018,05,09,04,52,0.00
2018,05,09,04,53,0.00
2018,05,09,04,54,0.00
2018,05,09,04,55,0.00
2018,05,09,04,56,0.00
2018,05,09,04,57,0.00
2018,05,09,04,58,0.00
2018,05,09,04,59,0.00
2018,05,09,05,00,0.00
2018,05,09,05,01,0.00
2018,05,09,05,02,0.00
2018,05,09,05,03,0.00
2018,05,09,05,04,0.00
2018,05,09,05,05,0.00
2018,05,09,05,06,0.00
2018,05,09,05,07,0.00
2018,05,09,05,08,0.00
2018,05,09,05,09,0.00
2018,05,09,05,10,0.00
2018,05,09,05,11,0.00
2018,05,09,05,12,0.00
2018,05,09,05,13,0.00
2018,05,09,05,14,0.00
2018,05,09,05,15,0.00
2018,05,09,05,16,0.00
2018,05,09,05,17,0.00
2018,05,09,05,18,0.00
2018,05,09,05,19,0.00
2018,05,09,05,20,0.00
2018,05,09,05,21,0.00
2018,05,09,05,22,0.00
2018,05,09,05,23,0.00
2018,05,09,05,24,0.00
2018,05,09,05,25,0.00
2018,05,09,05,26,0.00
2018,05,09,05,27,0.00
2018,05,09,05,28,0.00
2018,05,09,05,29,0.00
2018,05,09,05,30,0.00
2018,05,09,05,31,0.00
2018,05,09,05,32,0.00
2018,05,09,05,33,0.00
2018,05,09,05,34,0.00
2018,05,09,05,35,0.00
2018,05,09,05,36,0.00
2018,05,09,05,37,0.00
2018,05,09,05,38,0.00
2018,05,09,05,39,0.00
2018,05,09,05,40,0.00
2018,05,09,05,41,0.00
2018,05,09,05,42,0.00
2018,05,09,05,43,0.00
2018,05,09,05,44,0.00
2018,05,09,05,45,0.00
2018,05,09,05,46,0.00
2018,05,09,05,47,0.00
2018,05,09,05,48,0.00
2018,05,09,05,49,0.00
2018,05,09,05,50,0.00
2018,05,09,05,51,0.00
2018,05,09,05,52,0.00
2018,05,09,05,53,0.00
2018,05,09,05,54,0.00
2018,05,09,05,55,0.00
2018,05,09,05,56,0.00
2018,05,09,05,57,4.30
2018,05,09,05,58,5.00
2018,05,09,05,59,5.00
2018,05,09,06,00,5.00
2018,05,09,06,01,5.00
2018,05,09,06,02,5.00
2018,05,09,06,03,5.00
2018,05,09,06,04,6.50
2018,05,09,06,05,7.00
2018,05,09,06,06,7.00
2018,05,09,06,07,7.00
2018,05,09,06,08,7.40
2018,05,09,06,09,9.00
2018,05,09,06,10,9.00
2018,05,09,06,11,9.00
2018,05,09,06,12,10.30
2018,05,09,06,13,11.00
2018,05,09,06,14,11.90
2018,05,09,06,15,12.00
2018,05,09,06,16,12.00
2018,05,09,06,17,12.50
2018,05,09,06,18,14.00
2018,05,09,06,19,14.00
2018,05,09,06,20,15.10
2018,05,09,06,21,16.00
2018,05,09,06,22,17.60
2018,05,09,06,23,18.00
2018,05,09,06,24,19.00
2018,05,09,06,25,19.40
2018,05,09,06,26,21.60
2018,05,09,06,27,23.80
2018,05,09,06,28,25.00
2018,05,09,06,29,25.60
2018,05,09,06,30,26.00
2018,05,09,06,31,27.60
2018,05,09,06,32,29.90
2018,05,09,06,33,30.30
2018,05,09,06,34,32.00
2018,05,09,06,35,32.30
2018,05,09,06,36,33.00
2018,05,09,06,37,33.00
2018,05,09,06,38,34.40
2018,05,09,06,39,35.00
2018,05,09,06,40,35.00
2018,05,09,06,41,35.10
2018,05,09,06,42,37.00
2018,05,09,06,43,37.00
2018,05,09,06,44,37.00
2018,05,09,06,45,38.00
2018,05,09,06,46,39.00
2018,05,09,06,47,39.70
2018,05,09,06,48,41.60
2018,05,09,06,49,45.60
2018,05,09,06,50,51.30
2018,05,09,06,51,55.00
2018,05,09,06,52,59.50
2018,05,09,06,53,65.70
2018,05,09,06,54,70.70
2018,05,09,06,55,75.40
2018,05,09,06,56,80.00
2018,05,09,06,57,85.50
2018,05,09,06,58,83.10
2018,05,09,06,59,72.30
2018,05,09,07,00,60.30
2018,05,09,07,01,51.20
2018,05,09,07,02,43.70
2018,05,09,07,03,38.20
2018,05,09,07,04,34.20
2018,05,09,07,05,32.20
2018,05,09,07,06,30.30
2018,05,09,07,07,29.80
2018,05,09,07,08,28.00
2018,05,09,07,09,28.60
2018,05,09,07,10,30.80
2018,05,09,07,11,32.50
2018,05,09,07,12,34.30
2018,05,09,07,13,36.50
2018,05,09,07,14,38.70
2018,05,09,07,15,39.00
2018,05,09,07,16,40.00
2018,05,09,07,17,40.00
2018,05,09,07,18,39.70
2018,05,09,07,19,39.00
2018,05,09,07,20,39.00
2018,05,09,07,21,39.70
2018,05,09,07,22,41.50
2018,05,09,07,23,42.00
2018,05,09,07,24,41.80
2018,05,09,07,25,39.80
2018,05,09,07,26,39.00
2018,05,09,07,27,39.40
2018,05,09,07,28,42.00
2018,05,09,07,29,45.80
2018,05,09,07,30,48.40
2018,05,09,07,31,49.00
2018,05,09,07,32,53.50
2018,05,09,07,33,56.20
2018,05,09,07,34,58.80
2018,05,09,07,35,61.30
2018,05,09,07,36,60.90
2018,05,09,07,37,62.00
2018,05,09,07,38,62.00
2018,05,09,07,39,60.50
2018,05,09,07,40,58.30
2018,05,09,07,41,58.10
2018,05,09,07,42,60.00
2018,05,09,07,43,59.40
2018,05,09,07,44,58.70
2018,05,09,07,45,61.00
2018,05,09,07,46,62.00
2018,05,09,07,47,64.10
2018,05,09,07,48,66.60
2018,05,09,07,49,76.00
2018,05,09,07,50,68.80
2018,05,09,07,51,66.00
2018,05,09,07,52,62.00
2018,05,09,07,53,58.40
2018,05,09,07,54,54.90
2018,05,09,07,55,52.20
2018,05,09,07,56,52.40
2018,05,09,07,57,53.80
2018,05,09,07,58,57.90
2018,05,09,07,59,61.50
2018,05,09,08,00,68.20
2018,05,09,08,01,62.70
2018,05,09,08,02,62.00
2018,05,09,08,03,62.50
2018,05,09,08,04,62.30
2018,05,09,08,05,62.80
2018,05,09,08,06,62.10
2018,05,09,08,07,60.30
2018,05,09,08,08,62.20
2018,05,09,08,09,64.80
2018,05,09,08,10,71.80
2018,05,09,08,11,78.50
2018,05,09,08,12,82.80
2018,05,09,08,13,85.40
2018,05,09,08,14,89.20
2018,05,09,08,15,97.20
2018,05,09,08,16,104.80
2018,05,09,08,17,109.80
2018,05,09,08,18,114.50
2018,05,09,08,19,119.40
2018,05,09,08,20,122.10
2018,05,09,08,21,123.00
2018,05,09,08,22,123.00
2018,05,09,08,23,123.00
2018,05,09,08,24,120.90
2018,05,09,08,25,117.40
2018,05,09,08,26,113.80
2018,05,09,08,27,112.20
2018,05,09,08,28,112.00
2018,05,09,08,29,113.60
2018,05,09,08,30,116.80
2018,05,09,08,31,118.00
2018,05,09,08,32,116.20
2018,05,09,08,33,118.20
2018,05,09,08,34,119.60
2018,05,09,08,35,118.00
2018,05,09,08,36,117.20
2018,05,09,08,37,117.00
2018,05,09,08,38,119.80
2018,05,09,08,39,122.40
2018,05,09,08,40,124.60
2018,05,09,08,41,125.00
2018,05,09,08,42,125.40
2018,05,09,08,43,129.00
2018,05,09,08,44,133.10
2018,05,09,08,45,135.90
2018,05,09,08,46,135.90
2018,05,09,08,47,134.40
2018,05,09,08,48,132.50
2018,05,09,08,49,128.40
2018,05,09,08,50,127.30
2018,05,09,08,51,131.00
2018,05,09,08,52,136.80
2018,05,09,08,53,144.70
2018,05,09,08,54,150.00
2018,05,09,08,55,149.80
2018,05,09,08,56,145.70
2018,05,09,08,57,142.40
2018,05,09,08,58,143.90
2018,05,09,08,59,146.30
2018,05,09,09,00,147.50
2018,05,09,09,01,144.60
2018,05,09,09,02,142.00
2018,05,09,09,03,144.20
2018,05,09,09,04,147.90
2018,05,09,09,05,150.50
2018,05,09,09,06,149.30
2018,05,09,09,07,149.00
2018,05,09,09,08,149.30
2018,05,09,09,09,152.20
2018,05,09,09,10,157.40
2018,05,09,09,11,168.30
2018,05,09,09,12,188.00
2018,05,09,09,13,208.90
2018,05,09,09,14,226.00
2018,05,09,09,15,239.30
2018,05,09,09,16,250.50
2018,05,09,09,17,259.60
2018,05,09,09,18,278.30
2018,05,09,09,19,297.10
2018,05,09,09,20,322.00
2018,05,09,09,21,322.00
2018,05,09,09,22,288.40
2018,05,09,09,23,253.60
2018,05,09,09,24,248.20
2018,05,09,09,25,251.60
2018,05,09,09,26,256.80
2018,05,09,09,27,264.50
2018,05,09,09,28,269.90
2018,05,09,09,29,276.50
2018,05,09,09,30,291.40
2018,05,09,09,31,305.20
2018,05,09,09,32,306.30
2018,05,09,09,33,291.60
2018,05,09,09,34,267.00
2018,05,09,09,35,247.60
2018,05,09,09,36,235.40
2018,05,09,09,37,227.50
2018,05,09,09,38,222.60
2018,05,09,09,39,223.80
2018,05,09,09,40,243.40
2018,05,09,09,41,323.90
2018,05,09,09,42,266.00
2018,05,09,09,43,246.50
2018,05,09,09,44,269.00
2018,05,09,09,45,335.60
2018,05,09,09,46,417.00
2018,05,09,09,47,417.00
2018,05,09,09,48,417.00
2018,05,09,09,49,383.80
2018,05,09,09,50,373.80
2018,05,09,09,51,336.60
2018,05,09,09,52,364.00
2018,05,09,09,53,433.60
2018,05,09,09,54,503.00
2018,05,09,09,55,468.00
2018,05,09,09,56,354.60
2018,05,09,09,57,306.00
2018,05,09,09,58,686.70
2018,05,09,09,59,729.00
2018,05,09,10,00,638.00
2018,05,09,10,01,274.00
2018,05,09,10,02,274.00
2018,05,09,10,03,274.00
2018,05,09,10,04,299.20
2018,05,09,10,05,302.70
2018,05,09,10,06,315.40
2018,05,09,10,07,384.10
2018,05,09,10,08,348.70
2018,05,09,10,09,456.80
2018,05,09,10,10,531.00
2018,05,09,10,11,630.50
2018,05,09,10,12,763.50
2018,05,09,10,13,778.80
2018,05,09,10,14,785.00
2018,05,09,10,15,776.10
2018,05,09,10,16,756.00
2018,05,09,10,17,756.00
2018,05,09,10,18,756.00
2018,05,09,10,19,661.20
2018,05,09,10,20,519.00
2018,05,09,10,21,687.60
2018,05,09,10,22,760.80
2018,05,09,10,23,735.20
2018,05,09,10,24,807.70
2018,05,09,10,25,742.40
2018,05,09,10,26,724.20
2018,05,09,10,27,730.50
2018,05,09,10,28,779.80
2018,05,09,10,29,754.50
2018,05,09,10,30,796.30
2018,05,09,10,31,779.80
2018,05,09,10,32,802.90
2018,05,09,10,33,794.70
2018,05,09,10,34,649.00
2018,05,09,10,35,649.00
2018,05,09,10,36,649.00
2018,05,09,10,37,736.00
2018,05,09,10,38,780.40
2018,05,09,10,39,752.00
2018,05,09,10,40,640.80
2018,05,09,10,41,583.50
2018,05,09,10,42,668.90
2018,05,09,10,43,704.00
2018,05,09,10,44,636.00
2018,05,09,10,45,710.00
2018,05,09,10,46,853.50
2018,05,09,10,47,901.60
2018,05,09,10,48,909.80
2018,05,09,10,49,893.70
2018,05,09,10,50,890.60
2018,05,09,10,51,908.50
2018,05,09,10,52,864.00
2018,05,09,10,53,916.70
2018,05,09,10,54,915.60
2018,05,09,10,55,894.20
2018,05,09,10,56,881.90
2018,05,09,10,57,854.50
2018,05,09,10,58,769.70
2018,05,09,10,59,734.20
2018,05,09,11,00,717.70
2018,05,09,11,01,651.00
2018,05,09,11,02,717.20
2018,05,09,11,03,704.00
2018,05,09,11,04,646.80
2018,05,09,11,05,579.10
2018,05,09,11,06,524.80
2018,05,09,11,07,504.00
2018,05,09,11,08,497.20
2018,05,09,11,09,520.00
2018,05,09,11,10,568.70
2018,05,09,11,11,563.20
2018,05,09,11,12,546.80
2018,05,09,11,13,540.00
2018,05,09,11,14,543.50
2018,05,09,11,15,567.10
2018,05,09,11,16,536.90
2018,05,09,11,17,560.80
2018,05,09,11,18,587.20
2018,05,09,11,19,577.10
2018,05,09,11,20,616.00
2018,05,09,11,21,673.60
2018,05,09,11,22,696.00
2018,05,09,11,23,651.20
2018,05,09,11,24,590.50
2018,05,09,11,25,622.70
2018,05,09,11,26,637.40
2018,05,09,11,27,672.20
2018,05,09,11,28,667.40
2018,05,09,11,29,674.00
2018,05,09,11,30,715.00
2018,05,09,11,31,700.20
2018,05,09,11,32,657.40
2018,05,09,11,33,636.80
2018,05,09,11,34,563.50
2018,05,09,11,35,651.00
2018,05,09,11,36,737.30
2018,05,09,11,37,747.50
2018,05,09,11,38,766.80
2018,05,09,11,39,740.00
2018,05,09,11,40,710.00
2018,05,09,11,41,621.80
2018,05,09,11,42,574.60
2018,05,09,11,43,533.00
2018,05,09,11,44,575.10
2018,05,09,11,45,610.60
2018,05,09,11,46,627.90
2018,05,09,11,47,638.40
2018,05,09,11,48,601.40
2018,05,09,11,49,559.40
2018,05,09,11,50,563.00
2018,05,09,11,51,569.50
2018,05,09,11,52,590.00
2018,05,09,11,53,626.00
2018,05,09,11,54,639.90
2018,05,09,11,55,655.30
2018,05,09,11,56,674.80
2018,05,09,11,57,704.20
2018,05,09,11,58,711.70
2018,05,09,11,59,700.70
2018,05,09,12,00,638.40
2018,05,09,12,01,579.40
2018,05,09,12,02,559.20
2018,05,09,12,03,563.00
2018,05,09,12,04,563.60
2018,05,09,12,05,583.50
2018,05,09,12,06,603.60
2018,05,09,12,07,611.40
2018,05,09,12,08,641.20
2018,05,09,12,09,662.70
2018,05,09,12,10,703.60
2018,05,09,12,11,721.70
2018,05,09,12,12,766.20
2018,05,09,12,13,802.80
2018,05,09,12,14,784.60
2018,05,09,12,15,700.00
2018,05,09,12,16,672.50
2018,05,09,12,17,489.90
2018,05,09,12,18,478.00
2018,05,09,12,19,486.80
2018,05,09,12,20,491.10
2018,05,09,12,21,464.80
2018,05,09,12,22,459.20
2018,05,09,12,23,455.60
2018,05,09,12,24,471.10
2018,05,09,12,25,464.20
2018,05,09,12,26,466.30
2018,05,09,12,27,461.40
2018,05,09,12,28,474.00
2018,05,09,12,29,506.00
2018,05,09,12,30,562.60
2018,05,09,12,31,582.30
2018,05,09,12,32,628.80
2018,05,09,12,33,660.50
2018,05,09,12,34,733.00
2018,05,09,12,35,698.70
2018,05,09,12,36,561.30
2018,05,09,12,37,510.00
2018,05,09,12,38,452.80
2018,05,09,12,39,372.50
2018,05,09,12,40,349.20
2018,05,09,12,41,361.60
2018,05,09,12,42,414.50
2018,05,09,12,43,361.80
2018,05,09,12,44,330.20
2018,05,09,12,45,325.00
2018,05,09,12,46,326.90
2018,05,09,12,47,339.50
2018,05,09,12,48,344.80
2018,05,09,12,49,340.00
2018,05,09,12,50,410.10
2018,05,09,12,51,364.90
2018,05,09,12,52,377.50
2018,05,09,12,53,410.90
2018,05,09,12,54,441.30
2018,05,09,12,55,411.60
2018,05,09,12,56,391.90
2018,05,09,12,57,371.80
2018,05,09,12,58,360.40
2018,05,09,12,59,381.50
2018,05,09,13,00,413.00
2018,05,09,13,01,418.20
2018,05,09,13,02,432.90
2018,05,09,13,03,421.10
2018,05,09,13,04,408.00
2018,05,09,13,05,433.30
2018,05,09,13,06,451.40
2018,05,09,13,07,417.10
2018,05,09,13,08,435.90
2018,05,09,13,09,510.80
2018,05,09,13,10,579.90
2018,05,09,13,11,610.60
2018,05,09,13,12,591.00
2018,05,09,13,13,485.40
2018,05,09,13,14,415.00
2018,05,09,13,15,415.00
2018,05,09,13,16,453.40
2018,05,09,13,17,475.60
2018,05,09,13,18,520.00
2018,05,09,13,19,541.00
2018,05,09,13,20,541.00
2018,05,09,13,21,541.00
2018,05,09,13,22,530.80
2018,05,09,13,23,494.00
2018,05,09,13,24,465.00
2018,05,09,13,25,462.40
2018,05,09,13,26,494.70
2018,05,09,13,27,542.80
2018,05,09,13,28,552.00
2018,05,09,13,29,525.90
2018,05,09,13,30,503.20
2018,05,09,13,31,456.90
2018,05,09,13,32,411.40
2018,05,09,13,33,377.00
2018,05,09,13,34,371.00
2018,05,09,13,35,391.10
2018,05,09,13,36,406.40
2018,05,09,13,37,415.00
2018,05,09,13,38,402.80
2018,05,09,13,39,385.90
2018,05,09,13,40,368.80
2018,05,09,13,41,356.70
2018,05,09,13,42,360.80
2018,05,09,13,43,381.50
2018,05,09,13,44,394.80
2018,05,09,13,45,399.70
2018,05,09,13,46,383.50
2018,05,09,13,47,410.20
2018,05,09,13,48,427.90
2018,05,09,13,49,431.00
2018,05,09,13,50,431.00
2018,05,09,13,51,1187.10
2018,05,09,13,52,1287.00
2018,05,09,13,53,1088.40
2018,05,09,13,54,592.00
2018,05,09,13,55,592.00
2018,05,09,13,56,446.80
2018,05,09,13,57,320.70
2018,05,09,13,58,283.50
2018,05,09,13,59,262.90
2018,05,09,14,00,250.90
2018,05,09,14,01,251.60
2018,05,09,14,02,264.00
2018,05,09,14,03,283.60
2018,05,09,14,04,297.20
2018,05,09,14,05,304.60
2018,05,09,14,06,304.50
2018,05,09,14,07,329.50
2018,05,09,14,08,342.60
2018,05,09,14,09,497.00
2018,05,09,14,10,452.80
2018,05,09,14,11,309.50
2018,05,09,14,12,287.60
2018,05,09,14,13,294.30
2018,05,09,14,14,312.00
2018,05,09,14,15,366.00
2018,05,09,14,16,381.00
2018,05,09,14,17,461.70
2018,05,09,14,18,946.00
2018,05,09,14,19,946.00
2018,05,09,14,20,746.00
2018,05,09,14,21,471.00
2018,05,09,14,22,835.80
2018,05,09,14,23,1093.70
2018,05,09,14,24,1100.00
2018,05,09,14,25,381.20
2018,05,09,14,26,243.00
2018,05,09,14,27,243.00
2018,05,09,14,28,243.00
2018,05,09,14,29,243.00
2018,05,09,14,30,344.20
2018,05,09,14,31,439.60
2018,05,09,14,32,474.20
2018,05,09,14,33,482.00
2018,05,09,14,34,539.30
2018,05,09,14,35,1052.20
2018,05,09,14,36,1037.00
2018,05,09,14,37,753.60
2018,05,09,14,38,364.00
2018,05,09,14,39,364.00
2018,05,09,14,40,364.00
2018,05,09,14,41,364.00
2018,05,09,14,42,360.00
2018,05,09,14,43,281.00
2018,05,09,14,44,450.00
2018,05,09,14,45,989.20
2018,05,09,14,46,986.00
2018,05,09,14,47,974.50
2018,05,09,14,48,945.50
2018,05,09,14,49,911.80
2018,05,09,14,50,887.20
2018,05,09,14,51,873.00
2018,05,09,14,52,867.00
2018,05,09,14,53,861.00
2018,05,09,14,54,861.00
2018,05,09,14,55,685.30
2018,05,09,14,56,468.30
2018,05,09,14,57,452.00
2018,05,09,14,58,283.80
2018,05,09,14,59,219.40
2018,05,09,15,00,229.60
2018,05,09,15,01,195.20
2018,05,09,15,02,210.90
2018,05,09,15,03,220.00
2018,05,09,15,04,289.10
2018,05,09,15,05,352.00
2018,05,09,15,06,267.30
2018,05,09,15,07,225.70
2018,05,09,15,08,236.30
2018,05,09,15,09,253.90
2018,05,09,15,10,245.20
2018,05,09,15,11,240.10
2018,05,09,15,12,248.40
2018,05,09,15,13,267.20
2018,05,09,15,14,298.50
2018,05,09,15,15,305.00
2018,05,09,15,16,298.00
2018,05,09,15,17,286.70
2018,05,09,15,18,227.30
2018,05,09,15,19,194.80
2018,05,09,15,20,168.50
2018,05,09,15,21,182.50
2018,05,09,15,22,190.40
2018,05,09,15,23,171.50
2018,05,09,15,24,174.90
2018,05,09,15,25,185.00
2018,05,09,15,26,172.80
2018,05,09,15,27,164.80
2018,05,09,15,28,189.30
2018,05,09,15,29,229.50
2018,05,09,15,30,249.00
2018,05,09,15,31,260.20
2018,05,09,15,32,263.50
2018,05,09,15,33,245.90
2018,05,09,15,34,239.80
2018,05,09,15,35,253.30
2018,05,09,15,36,273.50
2018,05,09,15,37,256.30
2018,05,09,15,38,217.50
2018,05,09,15,39,203.80
2018,05,09,15,40,184.40
2018,05,09,15,41,191.20
2018,05,09,15,42,231.90
2018,05,09,15,43,262.00
2018,05,09,15,44,278.20
2018,05,09,15,45,327.30
2018,05,09,15,46,298.10
2018,05,09,15,47,289.00
2018,05,09,15,48,291.60
2018,05,09,15,49,281.40
2018,05,09,15,50,260.60
2018,05,09,15,51,221.40
2018,05,09,15,52,187.50
2018,05,09,15,53,161.50
2018,05,09,15,54,153.70
2018,05,09,15,55,150.40
2018,05,09,15,56,136.70
2018,05,09,15,57,113.90
2018,05,09,15,58,120.90
2018,05,09,15,59,133.20
2018,05,09,16,00,193.20
2018,05,09,16,01,190.80
2018,05,09,16,02,181.60
2018,05,09,16,03,140.80
2018,05,09,16,04,131.10
2018,05,09,16,05,139.20
2018,05,09,16,06,152.20
2018,05,09,16,07,153.60
2018,05,09,16,08,159.30
2018,05,09,16,09,164.70
2018,05,09,16,10,164.90
2018,05,09,16,11,178.90
2018,05,09,16,12,198.10
2018,05,09,16,13,221.20
2018,05,09,16,14,221.40
2018,05,09,16,15,188.60
2018,05,09,16,16,178.30
2018,05,09,16,17,184.40
2018,05,09,16,18,222.20
2018,05,09,16,19,238.50
2018,05,09,16,20,232.10
2018,05,09,16,21,211.60
2018,05,09,16,22,186.40
2018,05,09,16,23,167.50
2018,05,09,16,24,145.60
2018,05,09,16,25,120.30
2018,05,09,16,26,101.50
2018,05,09,16,27,97.20
2018,05,09,16,28,98.60
2018,05,09,16,29,102.80
2018,05,09,16,30,116.00
2018,05,09,16,31,136.40
2018,05,09,16,32,173.40
2018,05,09,16,33,186.00
2018,05,09,16,34,277.20
2018,05,09,16,35,356.70
2018,05,09,16,36,358.20
2018,05,09,16,37,325.00
2018,05,09,16,38,255.50
2018,05,09,16,39,168.00
2018,05,09,16,40,170.40
2018,05,09,16,41,200.80
2018,05,09,16,42,250.60
2018,05,09,16,43,276.40
2018,05,09,16,44,313.70
2018,05,09,16,45,364.00
2018,05,09,16,46,296.20
2018,05,09,16,47,253.50
2018,05,09,16,48,241.70
2018,05,09,16,49,251.30
2018,05,09,16,50,279.00
2018,05,09,16,51,266.90
2018,05,09,16,52,278.20
2018,05,09,16,53,268.80
2018,05,09,16,54,256.40
2018,05,09,16,55,238.00
2018,05,09,16,56,216.00
2018,05,09,16,57,205.90
2018,05,09,16,58,202.50
2018,05,09,16,59,200.20
2018,05,09,17,00,199.20
2018,05,09,17,01,202.30
2018,05,09,17,02,204.80
2018,05,09,17,03,207.00
2018,05,09,17,04,207.00
2018,05,09,17,05,210.40
2018,05,09,17,06,213.70
2018,05,09,17,07,213.20
2018,05,09,17,08,213.90
2018,05,09,17,09,219.20
2018,05,09,17,10,230.00
2018,05,09,17,11,232.70